Weather in Tishkovo

Russia / Astrakhan Oblast     46°01′06″N   48°36′35″E
temp.,
°C
wind,
m/s
gust,
m/s
humid.,
%
clouds,
%
prec.,
mm/h
press.,
hPa
HPBL,
m
1 march, mon
mon101:000nnw2379100 0.0 101887
04:00−1nw1278100 0.0 102022
07:00−1w2281100 0.0 102128
10:00+2nw367597 0.0 1023775
13:00+3wnw456998 0.0 1025823
16:00+4wnw467097 0.1 1024827
19:00+2nw239032 0.0 102545
22:00+1sw129460 0.0 102640
2 march, tue
tue201:00+1wsw229791 0.0 102752
04:00+1w139996 0.1 1027154
07:00+1wnw2398100 0.0 1027188
10:00+1sw2391100 0.1 1027222
13:00+3wsw477990 0.1 1026751
16:00+5w686488 0.2 10241203
19:00+3wsw496798 0.0 1022793
22:00+3sw4117299 0.1 1021721
3 march, wed
wed301:00+4sw61368100 0.0 1019726
04:00+3sw71475100 0.0 1016741
07:00+3wsw81475100 0.0 1015983
10:00+3wsw91478100 0.1 10151106
13:00+5w101569100 0.1 10141462
16:00+3w91493100 0.8 1013954
19:00+2wnw71294100 0.5 1015769
22:00+1wnw5108494 0.7 1017610
4 march, thu
thu401:00−1w5128012 0.0 1018507
04:00−1nw5116625 0.0 1021791
07:00−2wnw4107029 0.0 1023826
10:00+1wnw585515 0.0 1026937
13:00+4w68460 0.0 10261145
16:00+5w57420 0.0 10251378
19:00+1ssw48640 0.0 1024221
22:000ssw510640 0.0 1025240
5 march, fri
fri501:000ssw613640 0.0 1024380
04:000ssw511770 0.0 1023327
07:00−1ssw410870 0.0 1023249
10:00+4ssw610680 0.0 1023639
13:00+7ssw68610 0.0 1022911
16:00+7ssw68630 0.0 1021764
19:00+4ssw48770 0.0 1020300
22:00+2ssw37850 0.0 1022191